Location: Friedrichshafen
(47.6598°N, 9.4819°E)
Time: 08:20:42
(UTC+01:00)

ISS - Pass Details

Date: 13 November 2017
Orbit: 402 x 407 km, 51.6° (Epoch: 22 November)

Event Time Altitude Azimuth Distance (km) Brightness Sun altitude
Exits shadow 06:35:12 12° 285° (WNW) 1,346 -1.9 -8.5°
Maximum altitude 06:38:03 45° 212° (SSW) 562 -3.2 -8.1°
Drops below altitude 10° 06:41:10 10° 139° (SE) 1,450 0.0 -7.6°
Sets 06:43:17 0° 133° (SE) 2,306 1.4 -7.2°
